Satellite: NOAA-17
Catalog number: 27453
Epoch time:      05006.35924957
Element set:     199
Inclination:       98.6797 deg
RA of node:        82.2020 deg
Eccentricity:    0.0012365
Arg of perigee:   161.8539 deg
Mean anomaly:     198.3110 deg
Mean motion:   14.23617499 rev/day
Decay rate:       2.62e-06 rev/day^2
Epoch rev:           13181
Checksum:              316

/EX
SB KEPS @ AMSAT  $ORB05006.M
Orbital Elements  05006.MISC

HR AMSAT ORBITAL ELEMENTS FOR MANNED AND MISCELLANEOUS SATELLITES
FROM WA5QGD FORT WORTH,TX January 6, 2005
SEND SUBSCRIBE/UNSUBSCRIBE TO majordomo@amsat.org ONLY
BID: ORB05006.M
TO ALL RADIO AMATEURS BT

Satellite: HUBBLE
Catalog number: 20580
Epoch time:      05006.80347362
Element set:     242
Inclination:       28.4658 deg
RA of node:       240.1795 deg
Eccentricity:    0.0003620
Arg of perigee:   357.9924 deg
Mean anomaly:       2.0640 deg
Mean motion:   14.99529225 rev/day
Decay rate:      1.013e-05 rev/day^2
Epoch rev:           60599
Checksum:              280

Satellite: UARS
Catalog number: 21701
Epoch time:      05006.45804505
Element set:     349
Inclination:       56.9793 deg
RA of node:       125.6017 deg
Eccentricity:    0.0006404
Arg of perigee:    85.0696 deg
Mean anomaly:     275.1023 deg
Mean motion:   15.03725375 rev/day
Decay rate:      -3.69e-06 rev/day^2
Epoch rev:           72916
Checksum:              289

Satellite: PO-34
Catalog number: 25520
Epoch time:      05006.05232949
Element set:      86
Inclination:       28.4613 deg
RA of node:       316.0706 deg
Eccentricity:    0.0005880
Arg of perigee:   259.3987 deg
Mean anomaly:     100.5942 deg
Mean motion:   15.16019930 rev/day
Decay rate:      1.379e-05 rev/day^2
Epoch rev:           34195
Checksum:              298

Satellite: ISS
Catalog number: 25544
Epoch time:      05007.00588441
Element set:     533
Inclination:       51.6391 deg
RA of node:         5.0545 deg
Eccentricity:    0.0003584
Arg of perigee:   171.3818 deg
Mean anomaly:     238.2117 deg
Mean motion:   15.72431549 rev/day
Decay rate:     1.4161e-04 rev/day^2
Epoch rev:           35034
Checksum:              266

Satellite: OO-38
Catalog number: 26063
Epoch time:      05006.37671812
Element set:     253
Inclination:      100.2244 deg
RA of node:       196.6501 deg
Eccentricity:    0.0037119
Arg of perigee:   150.1087 deg
Mean anomaly:     210.2201 deg
Mean motion:   14.35694100 rev/day
Decay rate:        3.7e-07 rev/day^2
Epoch rev:           25907
Checksum:              253

Satellite: NO-45
Catalog number: 26932
Epoch time:      05005.96536360
Element set:     931
Inclination:       67.0598 deg
RA of node:       285.2378 deg
Eccentricity:    0.0008352
Arg of perigee:   277.3740 deg
Mean anomaly:      82.6696 deg
Mean motion:   14.29463909 rev/day
Decay rate:      -1.00e-06 rev/day^2
Epoch rev:           17061
Checksum:              321

/EX




----
Via the keps mailing list at AMSAT.ORG courtesy of AMSAT-NA.
To unsubscribe, send "unsubscribe keps" to Majordomo@amsat.org

--- ViaMAIL!/WC v1.60d
 * Origin: Chowdanet (401-331-0615) telnet://chowdanet.com  (1:323/120)